This demonstration page uses our WeatherBlox Daily Observations layout. Learn more.

Left ArrowRight Arrow

30.21309, -93.2044

Hourly Observations for October 15, 2015

Temp ( °F °C ) Dew Point ( °F °C ) Humidity (%) Winds ( mph kmh ) Pressure ( in mb ) Visibility ( mi km ) Precip ( " mm )
12:15 am 00:15 Clear 60 15.6 58 14.5 93 93 Calm 30.06 1018 10 16 0.00 0.00
12:35 am 00:35 Clear 60 15.4 58 14.7 96 96 Calm 30.06 1018 10 16 0.00 0.00
12:55 am 00:55 Clear 60 15.3 58 14.7 96 96 Calm 30.06 1018 10 16 0.00 0.00
1:15 am 01:15 Clear 60 15.5 58 14.6 94 94 Calm 30.06 1018 10 16 0.00 0.00
1:35 am 01:35 Clear 60 15.5 59 15.1 97 97 Calm 30.06 1018 10 16 0.00 0.00
1:55 am 01:55 Clear 58 14.6 57 14.1 97 97 Calm 30.06 1018 10 16 0.00 0.00
2:15 am 02:15 Clear 58 14.4 58 14.3 99 99 Calm 30.06 1018 10 16 0.00 0.00
2:35 am 02:35 Clear 58 14.6 58 14.3 98 98 Calm 30.06 1018 10 16 0.00 0.00
2:55 am 02:55 Clear 58 14.2 57 13.8 97 97 Calm 30.06 1018 10 16 0.00 0.00
3:15 am 03:15 Clear 57 14.1 57 13.7 97 97 Calm 30.06 1018 10 16 0.00 0.00
3:35 am 03:35 Clear 58 14.7 58 14.3 97 97 Calm 30.06 1018 10 16 0.00 0.00
3:55 am 03:55 Clear 59 14.9 58 14.4 97 97 Calm 30.06 1018 10 16 0.00 0.00
4:15 am 04:15 Clear 59 14.8 57 14.1 96 96 Calm 30.06 1018 10 16 0.00 0.00
4:35 am 04:35 Clear 58 14.5 57 14.1 97 97 Calm 30.06 1018 10 16 0.00 0.00
4:55 am 04:55 Clear 58 14.5 57 14.1 97 97 Calm 30.06 1018 10 16 0.00 0.00
5:15 am 05:15 Clear 57 13.7 56 13.4 98 98 Calm 30.06 1018 10 16 0.00 0.00
6:00 am 06:00 Mostly Clear 55 13 55 13 100 100 Calm 30.06 1018 10 16 0.00 0.00
6:50 am 06:50 Mostly Clear 55 13 55 13 100 100 Calm 30.06 1018 10 16 0.00 0.00
8:50 am 08:50 Mostly Sunny 66 19 61 16 83 83 Calm 30.12 1020 10 16 0.00 0.00
9:50 am 09:50 Mostly Sunny 72 22 63 17 73 73 VRB 3 6 30.12 1020 10 16 0.00 0.00
10:55 am 10:55 Mostly Sunny 81 27 61 16 51 51 Calm 30.12 1020 10 16 0.00 0.00
11:46 am 11:46 Mostly Sunny 82 28 59 15 45 45 Calm 30.12 1020 10 16 0.00 0.00
12:46 pm 12:46 Mostly Sunny 88 31 54 12 31 31 Calm 30.12 1020 10 16 0.00 0.00
1:45 pm 13:45 Mostly Sunny 90 32 52 11 27 27 Calm 30.09 1019 10 16 0.00 0.00
2:50 pm 14:50 Mostly Sunny 91 33 52 11 26 26 SE 7 11 30.06 1018 10 16 0.00 0.00
3:50 pm 15:50 Mostly Sunny 91 33 46 8 21 21 Calm 30.06 1018 10 16 0.00 0.00
4:50 pm 16:50 Mostly Sunny 90 32 48 9 24 24 SSE 7 11 30.06 1018 10 16 0.00 0.00
5:50 pm 17:50 Mostly Sunny 88 31 54 12 31 31 SSE 3 6 30.06 1018 10 16 0.00 0.00
6:50 pm 18:50 Mostly Clear 81 27 61 16 51 51 SSW 8 13 30.06 1018 10 16 0.00 0.00
7:00 pm 19:00 Mostly Clear 72 22 63 17 73 73 Calm 30.09 1019 10 16 0.00 0.00
8:50 pm 20:50 Mostly Clear 68 20 61 16 78 78 Calm 30.12 1020 10 16 0.00 0.00
9:50 pm 21:50 Mostly Clear 66 19 63 17 88 88 Calm 30.12 1020 10 16 0.00 0.00
10:15 pm 22:15 Clear 66 18.9 62 16.9 88 88 Calm 30.12 1020 10 16 0.00 0.00
10:35 pm 22:35 Clear 66 19 63 17.1 89 89 Calm 30.12 1020 10 16 0.00 0.00
10:55 pm 22:55 Clear 65 18.4 62 16.9 91 91 Calm 30.12 1020 10 16 0.00 0.00
11:15 pm 23:15 Clear 65 18.1 63 17.2 95 95 Calm 30.12 1020 10 16 0.00 0.00
11:35 pm 23:35 Clear 65 18.2 63 17.1 93 93 Calm 30.12 1020 10 16 0.00 0.00
11:55 pm 23:55 Clear 65 18.1 63 17.1 94 94 Calm 30.12 1020 10 16 0.00 0.00

Powered by AerisWeather